This demonstration page uses our WeatherBlox Daily Observations layout. Learn more.

Left ArrowRight Arrow

39.01783, -85.05884

Hourly Observations for October 28, 2018

Temp ( °F °C ) Dew Point ( °F °C ) Humidity (%) Winds ( mph kmh ) Pressure ( in mb ) Visibility ( mi km ) Precip ( " mm )
12:52 am 00:52 Cloudy 47 8.3 43 6.1 86 86 W 7 11 29.92 1013 10 16 N/A
1:52 am 01:52 Cloudy 47 8.3 44 6.7 90 90 W 3 6 29.92 1013 10 16 N/A
2:52 am 02:52 Cloudy 47 8.3 43 6.1 86 86 WSW 5 7 29.92 1013 10 16 N/A
3:52 am 03:52 Partly Cloudy 45 7.2 43 6.1 93 93 SW 3 6 29.91 1013 10 16 N/A
4:52 am 04:52 Clear 42 5.6 41 5 96 96 SSW 6 9 29.92 1013 9 14 N/A
5:52 am 05:52 Clear 42 5.6 41 5 96 96 SW 7 11 29.92 1013 10 16 N/A
6:52 am 06:52 Mostly Cloudy with Mist and Fog 42 5.6 41 5 96 96 SSW 7 11 29.91 1013 6 10 N/A
7:52 am 07:52 Mostly Cloudy with Mist and Fog 42 5.6 41 5 96 96 SSW 9 15 29.90 1013 5 8 N/A
8:52 am 08:52 Cloudy with Mist and Fog 44 6.7 42 5.6 93 93 S 9 15 29.89 1012 5 8 N/A
9:52 am 09:52 Mostly Cloudy 47 8.3 43 6.1 86 86 S 10 17 29.86 1011 7 11 N/A
10:52 am 10:52 Cloudy 48 8.9 45 7.2 89 89 S 14 22 29.80 1009 8 13 N/A
11:52 am 11:52 Partly Cloudy 55 12.8 49 9.4 80 80 S 15 24 29.72 1006 10 16 N/A
12:52 pm 12:52 Cloudy 56 13.3 48 8.9 75 75 SSW 16 26 29.69 1005 10 16 N/A
1:52 pm 13:52 Cloudy 57 13.9 48 8.9 72 72 SW 17 28 29.67 1005 10 16 N/A
2:52 pm 14:52 Partly Cloudy 61 16.1 49 9.4 65 65 WSW 13 20 29.64 1004 10 16 N/A
3:52 pm 15:52 Partly Cloudy 63 17.2 44 6.7 50 50 W 22 35 29.63 1004 10 16 N/A
4:52 pm 16:52 Mostly Cloudy 61 16.1 30 -1.1 31 31 W 32 52 29.67 1005 10 16 N/A
5:52 pm 17:52 Mostly Cloudy 59 15 35 1.7 41 41 WNW 30 48 29.72 1006 10 16 N/A
6:52 pm 18:52 Mostly Cloudy 54 12.2 41 5 62 62 NW 24 39 29.79 1009 10 16 N/A
7:52 pm 19:52 Cloudy 53 11.7 40 4.4 61 61 W 25 41 29.83 1010 10 16 N/A
8:52 pm 20:52 Cloudy 53 11.7 39 3.9 59 59 W 25 41 29.84 1010 10 16 N/A
9:52 pm 21:52 Cloudy 52 11.1 39 3.9 61 61 W 21 33 29.85 1011 10 16 N/A
10:52 pm 22:52 Cloudy 52 11.1 40 4.4 64 64 WNW 24 39 29.88 1012 10 16 N/A
11:35 pm 23:35 Cloudy 51 10.6 41 5 69 69 WNW 25 41 29.91 1013 10 16 N/A
11:52 pm 23:52 Cloudy 50 10 43 6.1 77 77 WNW 17 28 29.91 1013 10 16 N/A

Powered by AerisWeather